Weather History for Las Cruces, NM

Change the Weather History Date:

Friday, May 4, 2012

  Actual Average Record
Temperature  
Mean Temperature 68 °F -  
Max Temperature 87 °F 80 °F 89 °F (2014)
Min Temperature 48 °F 50 °F 37 °F (2011)
Cooling Degree Days 2    
Growing Degree Days 18 (Base 50)    
Moisture  
Dew Point 10 °F    
Average Humidity 11    
Maximum Humidity 24    
Minimum Humidity 5    
Precipitation  
Precipitation 0.00 in - - ()
Sea Level Pressure  
Sea Level Pressure 30.06 in    
Wind  
Wind Speed 10 mph (West)    
Max Wind Speed 16 mph    
Max Gust Speed 24 mph    
Visibility 10 miles    
Events      
Averages and records for this station are not official NWS values.
T = Trace of Precipitation, MM = Missing Value Source: NWS Daily Summary

Daily Weather History Graph

Daily Weather History Graph

Search for Another Location

Airport:

Trip Planner

Search our weather history database for the weather conditions in past years. The results will help you decide how hot, cold, wet, or windy it might be!

Date:

Astronomy

May. 04, 2012 Rise Set
Actual Time 6:17 AM MDT 7:51 PM MDT
Civil Twilight 5:51 AM MDT 8:17 PM MDT
Nautical Twilight 5:20 AM MDT 8:49 PM MDT
Astronomical Twilight 4:47 AM MDT 9:22 PM MDT
Moon 6:34 PM MDT (5/4) 4:56 AM MDT (5/4)
Length of Visible Light 14h 25m
Length of Day
13h 33m
Waxing Gibbous, 97% of the Moon is Illuminated
May 4
Waxing Gibbous
May 5
Full
May 12
Last Quarter
May 20
New
May 28
First Quarter

Hourly Weather History & Observations

Time (MDT) Temp. Dew Point Humidity Pressure Visibility Wind Dir Wind Speed Gust Speed Precip Events Conditions
12:15 AM 55.4 °F 3.2 °F 12% 30.06 in 10.0 mi West 11.5 mph - N/A   Clear
12:35 AM 55.4 °F 3.2 °F 12% 30.06 in 10.0 mi West 10.4 mph - N/A   Clear
12:55 AM 53.6 °F 3.2 °F 13% 30.06 in 10.0 mi West 10.4 mph - N/A   Clear
1:15 AM 53.6 °F 3.2 °F 13% 30.06 in 10.0 mi WSW 9.2 mph - N/A   Clear
1:35 AM 57.2 °F 3.2 °F 11% 30.06 in 10.0 mi West 11.5 mph - N/A   Clear
1:55 AM 57.2 °F 5.0 °F 12% 30.06 in 10.0 mi West 10.4 mph - N/A   Clear
2:15 AM 59.0 °F 5.0 °F 12% 30.05 in 10.0 mi West 12.7 mph - N/A   Clear
2:35 AM 60.8 °F 6.8 °F 12% 30.05 in 10.0 mi West 10.4 mph - N/A   Clear
2:55 AM 57.2 °F 6.8 °F 13% 30.05 in 10.0 mi West 12.7 mph - N/A   Clear
3:15 AM 59.0 °F 8.6 °F 14% 30.05 in 10.0 mi WNW 9.2 mph - N/A   Clear
3:35 AM 59.0 °F 8.6 °F 14% 30.05 in 10.0 mi West 11.5 mph - N/A   Clear
3:55 AM 57.2 °F 8.6 °F 14% 30.05 in 10.0 mi West 9.2 mph - N/A   Clear
4:15 AM 53.6 °F 8.6 °F 16% 30.06 in 10.0 mi WNW 8.1 mph - N/A   Clear
4:35 AM 50.0 °F 10.4 °F 20% 30.07 in 10.0 mi West 10.4 mph - N/A   Clear
4:55 AM 53.6 °F 10.4 °F 18% 30.07 in 10.0 mi West 10.4 mph - N/A   Clear
5:15 AM 55.4 °F 10.4 °F 17% 30.07 in 10.0 mi West 12.7 mph - N/A   Clear
5:35 AM 55.4 °F 12.2 °F 18% 30.07 in 10.0 mi West 11.5 mph - N/A   Clear
5:55 AM 53.6 °F 12.2 °F 19% 30.07 in 10.0 mi West 12.7 mph - N/A   Clear
6:15 AM 51.8 °F 12.2 °F 21% 30.08 in 10.0 mi West 8.1 mph - N/A   Clear
6:35 AM 48.2 °F 12.2 °F 24% 30.08 in 10.0 mi West 9.2 mph - N/A   Clear
6:55 AM 51.8 °F 12.2 °F 21% 30.08 in 10.0 mi WNW 8.1 mph - N/A   Clear
7:15 AM 55.4 °F 14.0 °F 20% 30.09 in 10.0 mi West 6.9 mph - N/A   Clear
7:35 AM 59.0 °F 15.8 °F 19% 30.10 in 10.0 mi West 5.8 mph - N/A   Clear
7:55 AM 62.6 °F 17.6 °F 18% 30.11 in 10.0 mi West 6.9 mph - N/A   Clear
8:15 AM 66.2 °F 17.6 °F 15% 30.11 in 10.0 mi West 8.1 mph - N/A   Clear
8:35 AM 69.8 °F 17.6 °F 14% 30.12 in 10.0 mi WNW 5.8 mph - N/A   Clear
8:55 AM 69.8 °F 17.6 °F 14% 30.12 in 10.0 mi SW 8.1 mph - N/A   Clear
9:15 AM 69.8 °F 17.6 °F 14% 30.13 in 10.0 mi WSW 10.4 mph - N/A   Clear
9:35 AM 71.6 °F 17.6 °F 13% 30.13 in 10.0 mi WSW 6.9 mph - N/A   Clear
9:55 AM 73.4 °F 17.6 °F 12% 30.13 in 10.0 mi SW 9.2 mph - N/A   Clear
10:15 AM 75.2 °F 17.6 °F 11% 30.13 in 10.0 mi West 6.9 mph - N/A   Clear
10:35 AM 77.0 °F 17.6 °F 11% 30.13 in 10.0 mi West 11.5 mph 16.1 mph N/A   Clear
10:55 AM 78.8 °F 17.6 °F 10% 30.12 in 10.0 mi WSW 13.8 mph - N/A   Clear
11:15 AM 80.6 °F 15.8 °F 9% 30.12 in 10.0 mi West 9.2 mph - N/A   Clear
11:35 AM 80.6 °F 14.0 °F 8% 30.12 in 10.0 mi West 12.7 mph 20.7 mph N/A   Clear
11:55 AM 82.4 °F 14.0 °F 8% 30.12 in 10.0 mi West 13.8 mph 21.9 mph N/A   Clear
12:15 PM 82.4 °F 14.0 °F 8% 30.12 in 10.0 mi SW 11.5 mph 19.6 mph N/A   Clear
12:35 PM 82.4 °F 14.0 °F 8% 30.11 in 10.0 mi West 11.5 mph 18.4 mph N/A   Clear
12:55 PM 82.4 °F 14.0 °F 8% 30.10 in 10.0 mi WSW 8.1 mph 18.4 mph N/A   Clear
1:15 PM 84.2 °F 12.2 °F 7% 30.10 in 10.0 mi SW 10.4 mph 20.7 mph N/A   Clear
1:35 PM 84.2 °F 10.4 °F 6% 30.09 in 10.0 mi WSW 12.7 mph 20.7 mph N/A   Clear
1:55 PM 86.0 °F 10.4 °F 6% 30.08 in 10.0 mi WSW 13.8 mph 19.6 mph N/A   Clear
2:15 PM 84.2 °F 12.2 °F 7% 30.07 in 10.0 mi SW 12.7 mph 18.4 mph N/A   Clear
2:35 PM 86.0 °F 8.6 °F 5% 30.06 in 10.0 mi WSW 13.8 mph 24.2 mph N/A   Clear
2:55 PM 86.0 °F 10.4 °F 6% 30.05 in 10.0 mi SSW 11.5 mph 24.2 mph N/A   Clear
3:15 PM 86.0 °F 10.4 °F 6% 30.04 in 10.0 mi WSW 15.0 mph 20.7 mph N/A   Clear
3:35 PM 87.8 °F 10.4 °F 6% 30.03 in 10.0 mi SSW 8.1 mph 20.7 mph N/A   Clear
3:55 PM 86.0 °F 8.6 °F 5% 30.03 in 10.0 mi WSW 10.4 mph - N/A   Clear
4:15 PM 86.0 °F 8.6 °F 5% 30.03 in 10.0 mi WNW 4.6 mph 12.7 mph N/A   Clear
4:35 PM 87.8 °F 8.6 °F 5% 30.02 in 10.0 mi WNW 6.9 mph 18.4 mph N/A   Clear
4:55 PM 87.8 °F 8.6 °F 5% 30.02 in 10.0 mi WSW 6.9 mph - N/A   Clear
5:15 PM 87.8 °F 8.6 °F 5% 30.02 in 10.0 mi West 12.7 mph 19.6 mph N/A   Clear
5:35 PM 86.0 °F 8.6 °F 5% 30.01 in 10.0 mi SW 6.9 mph - N/A   Clear
5:55 PM 86.0 °F 8.6 °F 5% 30.00 in 10.0 mi WSW 13.8 mph 18.4 mph N/A   Clear
6:15 PM 86.0 °F 10.4 °F 6% 30.00 in 10.0 mi WSW 16.1 mph 19.6 mph N/A   Clear
6:35 PM 86.0 °F 10.4 °F 6% 30.00 in 10.0 mi West 13.8 mph 18.4 mph N/A   Clear
6:55 PM 84.2 °F 8.6 °F 6% 30.00 in 10.0 mi West 16.1 mph 19.6 mph N/A   Clear
7:15 PM 82.4 °F 8.6 °F 6% 30.00 in 10.0 mi West 16.1 mph 20.7 mph N/A   Clear
7:35 PM 82.4 °F 6.8 °F 6% 30.01 in 10.0 mi West 13.8 mph - N/A   Clear
7:55 PM 78.8 °F 6.8 °F 6% 30.02 in 10.0 mi West 9.2 mph - N/A   Clear
8:15 PM 75.2 °F 6.8 °F 7% 30.02 in 10.0 mi WSW 8.1 mph - N/A   Clear
8:35 PM 71.6 °F 6.8 °F 8% 30.02 in 10.0 mi WSW 9.2 mph - N/A   Clear
8:55 PM 69.8 °F 6.8 °F 9% 30.02 in 10.0 mi WSW 8.1 mph - N/A   Clear
9:15 PM 68.0 °F 6.8 °F 9% 30.03 in 10.0 mi West 8.1 mph - N/A   Clear
9:35 PM 66.2 °F 6.8 °F 10% 30.03 in 10.0 mi West 9.2 mph - N/A   Clear
9:55 PM 64.4 °F 6.8 °F 10% 30.03 in 10.0 mi West 9.2 mph - N/A   Clear
10:15 PM 64.4 °F 8.6 °F 11% 30.03 in 10.0 mi West 9.2 mph - N/A   Clear
10:35 PM 62.6 °F 8.6 °F 12% 30.04 in 10.0 mi West 11.5 mph - N/A   Clear
10:55 PM 64.4 °F 6.8 °F 10% 30.03 in 10.0 mi West 8.1 mph - N/A   Clear
11:15 PM 62.6 °F 6.8 °F 11% 30.03 in 10.0 mi West 10.4 mph - N/A   Clear
11:35 PM 62.6 °F 6.8 °F 11% 30.03 in 10.0 mi West 11.5 mph - N/A   Clear
11:55 PM 62.6 °F 6.8 °F 11% 30.03 in 10.0 mi West 11.5 mph - N/A   Clear